Theta_e
308 316 321 325 328 332 334 333 330 330 328 323 324 328 327 325 335 338 334 337 336 337 341 340 341 342 341 339 337 331 335 336 337 337 336 335 332 330 330 330 331 330 329 330 330 330 329 327 325
307 315 325 321 331 330 329 328 332 330 326 322 325 331 333 335 334 334 336 336 335 338 341 341 341 341 341 340 337 329 336 336 337 336 334 334 331 330 330 329 329 329 330 330 330 330 329 326 327
308 314 324 326 327 327 323 327 328 328 326 326 325 328 330 334 332 334 335 336 335 340 341 340 340 341 341 340 335 328 334 335 335 332 332 333 331 330 329 329 329 329 329 330 330 330 329 327 327
306 317 319 330 327 325 322 324 326 327 323 322 325 329 333 332 332 334 335 337 337 340 340 339 340 340 340 338 330 329 333 333 332 331 331 331 330 329 328 328 329 328 329 329 330 330 329 327 327
310 315 323 326 321 324 325 323 322 323 323 323 322 325 334 333 333 333 336 338 339 340 339 340 340 338 338 336 330 331 332 330 330 330 330 330 329 328 328 327 328 328 329 328 331 330 327 326 326
308 313 322 320 314 318 321 322 323 323 322 321 321 321 334 333 334 337 338 339 339 339 339 339 338 337 336 335 331 331 330 329 328 329 329 329 328 328 327 327 327 329 329 329 330 330 326 325 327
306 314 316 314 316 317 319 321 322 322 319 319 317 321 328 333 335 338 339 339 339 338 338 337 336 335 334 333 331 329 329 328 328 327 328 328 328 327 327 327 328 329 330 330 329 328 325 324 327
302 306 310 312 314 314 313 313 313 316 314 314 318 330 330 325 332 339 338 338 336 336 337 337 335 335 334 332 330 329 328 328 328 327 328 327 327 326 326 326 328 329 329 329 328 326 326 323 326
301 303 304 305 307 307 306 304 305 305 312 309 315 317 317 317 332 338 338 338 337 336 337 337 335 335 333 330 328 329 329 327 327 327 327 326 326 325 326 326 327 327 328 328 328 325 324 324 326
302 301 302 303 303 302 303 303 303 304 304 306 307 312 311 312 322 334 338 338 337 337 337 336 336 334 332 330 329 329 327 326 326 326 326 325 325 325 325 325 326 327 328 328 327 325 323 325 326
303 303 302 302 303 303 303 303 303 303 305 309 305 307 308 313 318 319 331 338 336 336 336 334 335 332 330 330 330 328 326 326 326 325 325 324 325 325 324 324 327 327 327 326 324 324 323 325 325
303 301 301 302 303 301 302 302 302 302 303 302 303 304 308 312 313 314 318 334 337 337 336 335 334 332 331 329 329 328 326 325 325 324 324 323 324 325 324 323 326 327 326 327 325 323 323 325 325
302 301 301 301 301 300 300 301 301 302 301 302 302 304 304 306 308 312 311 329 335 337 337 335 333 331 330 329 329 328 325 325 325 323 323 322 323 325 322 322 325 327 327 326 325 323 323 324 324
301 302 302 302 301 301 301 300 300 301 301 301 302 302 303 305 307 310 310 323 333 337 337 335 333 331 329 328 328 327 327 325 324 324 323 322 323 324 321 322 324 327 326 325 325 323 322 322 323
303 303 302 301 300 299 300 301 301 300 300 301 300 301 303 304 306 307 312 321 329 334 336 335 333 331 329 327 327 327 327 325 324 324 323 324 323 325 320 322 323 327 326 326 323 323 322 322 322
303 302 303 300 299 299 300 299 298 298 298 299 300 298 300 303 305 306 312 324 328 332 333 335 334 331 330 328 326 327 326 326 325 324 323 324 324 325 321 321 322 324 326 326 324 322 322 321 321
303 302 302 302 301 301 301 301 300 300 300 300 300 299 299 302 303 305 311 316 324 330 331 335 334 333 331 330 328 326 326 326 325 325 324 325 324 325 323 323 323 323 326 326 326 321 322 319 318
302 303 302 302 301 301 301 302 301 301 300 298 298 298 297 298 302 305 313 316 326 327 331 333 334 333 332 331 329 327 326 326 326 326 325 325 325 324 324 324 324 325 327 327 325 320 320 319 317
304 305 305 303 303 303 303 302 301 301 299 298 299 296 296 297 299 302 311 317 323 327 330 331 333 333 332 331 330 329 326 324 323 324 323 321 323 324 324 324 324 326 326 327 324 319 319 317 315
303 303 303 302 301 302 302 301 301 301 300 299 299 299 296 297 298 301 305 313 323 328 330 330 332 333 332 332 331 329 328 325 323 322 320 322 322 322 325 325 325 326 325 324 321 319 316 314 313
302 302 302 302 302 301 302 303 302 301 301 301 301 300 298 296 297 298 302 307 321 326 328 329 331 332 332 331 330 329 327 325 323 322 322 323 323 322 325 325 326 326 325 323 323 319 318 313 311
301 301 302 302 303 303 301 302 299 299 299 300 300 300 299 296 297 298 300 308 321 325 325 325 330 330 330 331 329 328 325 323 323 323 323 323 323 323 323 325 326 326 325 322 322 321 318 317 308
301 301 302 302 303 304 303 304 300 299 300 299 300 300 299 297 297 298 299 308 318 323 326 323 327 329 329 329 329 327 326 325 324 324 324 324 322 322 322 323 326 327 325 324 321 318 315 315 312
300 301 302 303 304 303 302 303 301 299 301 300 299 298 298 296 297 298 299 304 317 321 325 325 325 322 327 329 329 328 326 325 323 323 323 323 322 322 323 324 325 326 325 324 321 322 319 316 312
301 300 295 296 297 300 301 304 303 302 303 303 303 301 297 297 296 297 298 301 310 322 323 324 323 322 322 328 328 327 326 324 323 323 322 322 322 322 322 324 325 324 324 322 319 320 318 315 310
302 304 302 304 300 302 303 306 307 299 296 297 298 301 299 296 297 298 298 300 308 322 322 322 322 322 320 327 328 327 326 326 326 325 323 323 323 323 322 322 324 325 323 319 319 318 314 309 307
299 302 298 300 301 304 307 306 306 295 293 294 298 303 297 296 296 298 298 302 309 322 324 323 323 320 321 327 327 325 325 324 324 323 323 323 322 321 319 317 317 315 315 312 311 309 307 306 305
298 297 296 299 299 301 305 305 296 292 290 291 307 303 296 296 297 298 299 304 316 321 323 325 324 324 325 325 323 322 322 322 321 321 317 316 313 313 311 310 307 304 303 304 302 299 299 298 294
296 293 294 296 297 303 305 302 294 290 289 299 308 304 297 298 301 304 310 307 307 306 306 306 309 311 308 309 311 308 307 309 308 306 305 305 305 304 303 302 300 299 296 294 295 293 292 293 293
294 292 293 294 300 297 302 301 291 287 288 302 306 306 304 304 304 303 302 301 300 300 300 299 300 299 298 298 301 299 298 297 297 296 295 295 296 295 295 295 294 293 293 293 293 293 293 294 294
Wind_Speed
16 13 9 2 1 3 9 6 3 4 3 5 3 3 6 8 6 5 3 20 31 39 41 39 37 35 33 31 29 31 29 27 26 24 24 24 22 23 22 20 18 17 16 16 15 15 15 16 16
16 8 1 2 4 8 10 10 10 15 7 8 3 3 3 6 1 4 14 18 36 43 42 39 37 35 33 33 30 32 30 29 27 25 22 22 22 22 21 21 19 18 16 16 15 14 15 17 17
10 2 3 4 5 20 10 6 17 17 7 5 6 5 4 4 1 14 8 27 39 41 41 41 37 36 35 33 30 32 31 29 27 25 23 23 22 21 20 20 20 18 16 15 14 14 15 16 16
6 4 2 7 22 10 13 2 6 7 4 7 4 8 4 0 2 10 19 31 40 39 42 41 38 37 36 32 30 34 32 30 29 27 25 23 22 23 20 20 20 19 17 15 14 15 16 17 15
2 1 4 9 26 7 3 7 8 9 6 4 4 7 4 5 4 11 27 36 41 38 40 42 40 36 33 30 32 36 33 31 30 28 25 24 24 22 21 20 19 18 17 15 14 15 16 16 14
2 2 6 13 22 4 7 10 4 4 7 8 6 7 4 6 5 17 29 29 33 38 42 42 40 34 33 32 34 36 33 32 29 26 26 26 25 23 22 20 19 19 17 15 14 14 15 16 13
3 1 6 7 6 4 4 5 6 14 6 5 6 4 3 1 10 21 24 24 26 30 38 40 37 35 33 33 34 36 33 29 28 27 27 26 26 24 21 21 20 18 17 16 15 14 14 15 15
3 2 4 4 4 7 8 9 8 4 4 9 3 1 4 10 10 22 25 23 25 27 34 38 38 37 36 34 34 35 32 31 29 29 27 26 25 24 22 21 20 19 18 17 16 14 13 15 16
3 1 3 4 3 5 8 8 5 6 5 5 5 1 5 23 13 18 23 21 23 27 31 34 38 40 38 36 36 32 31 29 28 28 28 27 25 23 22 21 20 21 19 16 15 13 13 14 15
3 2 5 4 4 7 9 8 10 5 9 5 11 5 17 17 12 10 20 21 26 28 32 35 36 38 39 38 37 34 33 30 29 29 28 28 25 24 23 22 19 19 19 16 14 13 13 17 18
3 6 4 6 8 3 5 9 4 6 8 3 6 10 9 4 8 13 13 24 33 32 29 32 34 37 40 35 39 36 34 33 30 30 29 27 25 25 23 23 21 20 18 17 15 15 16 19 21
4 6 6 6 5 4 6 4 9 9 11 8 11 8 5 6 6 8 16 16 25 27 32 34 32 32 36 37 41 39 36 34 32 30 31 28 28 27 25 25 24 23 21 18 16 14 16 20 19
9 11 9 7 12 8 10 13 11 16 12 13 9 9 12 10 9 12 19 19 19 32 31 35 38 35 34 36 37 39 38 36 35 30 29 29 29 28 27 25 25 24 22 19 18 17 16 19 19
4 7 13 11 17 10 14 18 5 9 10 10 9 10 12 14 10 10 18 19 20 22 31 35 39 37 35 34 32 35 37 38 36 34 31 31 29 29 28 26 25 24 22 20 19 19 17 17 18
7 13 15 17 13 8 7 10 13 9 12 17 10 10 13 15 14 11 20 18 17 23 29 35 37 40 37 37 33 35 36 37 37 37 34 33 30 29 28 27 26 25 23 21 21 19 17 16 18
9 7 8 3 3 5 7 13 9 10 9 14 13 9 11 15 15 21 19 15 17 23 27 38 31 39 41 41 39 35 36 37 37 37 35 34 32 29 29 28 27 26 24 23 22 21 18 18 19
7 11 13 14 6 6 9 6 7 8 12 14 12 8 9 12 11 18 21 14 14 18 25 34 38 36 39 34 36 38 38 37 37 36 35 36 33 31 30 29 27 28 27 27 26 24 19 19 18
12 12 12 14 4 7 16 17 16 12 14 14 13 7 8 8 11 14 16 10 13 18 24 34 34 36 36 35 30 30 34 38 38 37 36 34 35 35 32 32 29 29 30 32 30 26 21 20 20
18 18 20 19 17 18 18 21 19 16 9 13 16 8 8 9 9 15 17 10 10 19 20 30 37 35 37 35 32 26 27 29 30 36 36 34 35 36 33 33 30 31 32 32 30 27 23 20 21
15 21 23 20 16 12 15 21 16 13 12 11 16 16 8 6 7 8 10 13 12 19 19 23 28 34 37 31 31 28 28 29 31 34 36 35 35 35 32 33 31 31 33 31 31 30 24 19 25
16 16 19 20 18 16 15 21 17 16 18 18 19 19 8 10 9 7 6 10 15 18 20 17 23 32 36 32 28 25 24 18 22 28 32 36 34 37 34 34 33 32 35 33 32 32 29 26 28
13 5 6 12 9 6 4 9 8 5 12 12 18 17 12 10 8 7 7 8 13 19 22 20 22 32 25 31 31 32 29 20 21 28 34 35 33 33 35 35 34 37 37 36 36 34 35 31 25
9 9 11 15 14 9 13 6 5 8 13 17 16 17 12 10 9 9 9 10 12 16 25 22 18 18 29 28 29 30 24 25 25 28 31 33 33 32 33 37 37 37 38 38 37 33 36 36 26
17 16 16 12 6 5 10 9 4 2 3 5 6 9 11 10 10 9 11 15 13 20 22 23 19 9 16 28 31 31 26 22 23 27 28 32 33 33 33 35 39 39 39 38 37 36 37 39 40
7 5 4 4 1 5 3 8 10 13 14 12 15 14 9 8 9 9 8 7 12 14 20 21 20 18 14 26 30 30 27 28 27 25 25 30 34 36 38 37 37 39 40 40 37 36 38 39 38
12 3 3 7 2 3 5 4 1 19 25 25 22 17 9 8 7 8 8 7 10 15 19 20 20 12 5 22 29 28 28 27 30 32 31 34 33 36 38 42 42 41 41 35 31 32 32 28 25
10 9 13 7 15 5 3 2 4 29 28 22 20 11 8 9 8 9 6 7 11 13 22 25 19 11 4 19 19 20 25 25 26 28 30 27 26 25 25 27 30 30 29 24 24 19 15 13 13
11 12 6 3 5 5 2 6 10 30 32 34 5 6 7 8 7 6 5 6 4 8 15 9 8 0 3 10 4 10 6 5 6 6 4 3 3 4 3 4 4 9 8 5 2 4 6 5 10
9 10 5 4 3 3 6 5 15 25 27 24 13 8 5 7 10 10 12 19 21 25 34 30 26 25 24 21 22 25 23 21 20 21 19 17 14 12 12 11 9 9 13 15 15 20 19 21 18
9 14 5 1 4 4 3 4 23 26 25 19 15 16 19 21 19 17 16 23 26 29 33 31 28 36 30 32 34 34 33 33 35 33 31 29 29 25 22 21 21 21 20 19 15 17 12 12 8
Wind_Direction
326 324 313 40 61 245 232 245 285 249 221 217 172 203 217 200 176 213 171 163 166 166 172 176 177 173 170 167 166 157 156 155 149 147 145 141 141 139 141 139 138 137 136 135 135 135 132 130 130
327 330 328 99 198 240 239 214 236 238 252 334 329 232 271 251 207 111 140 179 170 168 172 174 176 175 172 170 168 163 161 157 154 151 152 144 144 145 145 143 142 140 140 139 139 140 137 135 133
334 297 116 176 215 233 245 198 231 255 277 287 307 213 213 239 295 171 217 170 169 167 173 175 176 177 173 174 170 165 165 160 157 158 161 151 149 150 149 145 143 144 143 143 146 147 141 140 136
341 355 353 241 237 248 226 199 224 257 257 234 249 282 295 235 241 204 174 166 168 168 173 174 175 176 174 175 170 164 167 164 160 164 163 160 155 154 155 150 148 148 149 151 152 148 147 145 142
15 42 242 239 249 258 253 254 266 272 295 299 357 284 268 318 291 189 177 168 166 168 174 174 172 171 178 178 173 167 169 166 166 166 168 167 163 160 158 156 153 154 155 158 157 154 152 150 149
8 87 243 242 251 308 250 275 271 254 272 289 267 263 238 316 165 162 170 170 168 168 174 175 177 176 178 180 175 171 172 168 168 170 171 170 166 163 161 159 159 158 160 160 163 161 159 155 152
131 152 248 286 301 313 281 254 247 278 275 271 309 251 265 129 195 169 167 170 172 171 172 174 175 178 179 180 179 174 173 169 171 173 175 172 169 167 166 163 164 163 163 165 167 165 164 162 154
115 135 283 265 286 293 258 312 330 344 294 315 348 299 329 328 273 168 163 172 174 174 171 172 176 180 179 180 178 175 173 173 175 175 175 175 171 169 169 169 168 167 168 169 164 163 171 169 168
123 265 266 274 270 285 338 342 305 310 255 342 314 36 285 350 188 167 155 165 175 177 176 175 177 182 181 178 177 178 177 174 178 178 177 176 174 174 170 175 173 170 171 173 173 172 179 175 174
143 193 246 213 315 306 301 294 303 303 303 293 284 315 342 357 344 212 176 173 183 179 179 179 177 178 180 179 179 179 175 179 179 179 181 178 180 179 178 178 176 179 173 175 180 185 179 177 169
201 211 211 273 283 304 293 305 288 288 288 266 298 306 327 351 356 329 283 186 190 185 179 182 179 176 180 177 180 179 179 178 184 182 183 181 183 183 186 179 178 183 182 180 182 188 183 178 176
288 253 251 270 259 307 291 266 280 256 261 271 291 287 277 313 286 305 306 271 188 182 184 180 178 177 177 179 182 181 181 182 182 186 186 182 188 188 188 185 183 185 186 188 189 186 182 182 186
255 273 272 256 289 278 273 261 254 267 272 268 270 287 292 286 278 258 288 270 228 188 185 182 180 179 177 183 182 186 185 186 185 183 187 188 191 191 190 190 188 189 191 194 190 189 186 186 193
264 284 286 293 287 283 270 268 247 265 277 274 260 267 276 280 257 221 283 264 242 187 187 180 179 177 177 184 182 187 189 188 190 188 191 194 193 194 194 194 195 193 195 195 196 197 202 198 205
274 290 292 281 277 251 237 264 239 238 262 268 241 241 257 267 272 254 223 262 249 221 195 182 178 179 182 185 186 189 192 193 193 195 197 199 202 200 199 197 199 199 199 197 198 200 206 208 206
284 271 281 58 330 252 168 265 278 255 253 273 272 249 253 265 270 272 257 249 255 230 222 176 180 178 182 184 189 191 195 196 197 200 202 202 204 205 201 203 205 203 203 204 204 203 205 211 209
198 267 263 289 232 240 194 255 248 282 284 276 272 252 253 263 263 259 250 251 239 227 215 186 186 181 182 183 189 194 198 200 201 204 204 206 207 207 208 208 210 206 205 206 208 203 213 203 201
277 262 262 264 252 274 287 273 271 269 268 269 274 245 261 269 270 260 240 255 235 228 211 191 187 185 185 183 188 191 195 201 205 208 209 210 211 210 214 213 212 208 208 212 204 205 201 213 206
280 276 268 270 279 277 270 269 271 269 249 261 267 238 234 251 270 298 245 235 242 240 212 189 188 186 184 183 176 188 188 193 200 208 211 213 213 212 217 218 220 215 221 210 206 204 203 203 203
272 275 271 277 268 258 260 261 264 256 246 237 258 268 221 237 270 282 302 229 227 218 211 197 192 187 186 188 184 187 189 196 200 208 209 211 213 211 215 221 220 221 210 211 210 209 200 206 198
275 267 277 276 294 272 273 274 263 249 245 243 247 250 219 217 243 252 262 250 231 214 211 226 193 192 186 183 178 182 185 191 195 208 211 213 214 215 217 222 223 223 218 216 219 218 215 201 204
287 255 285 293 289 279 152 288 244 241 233 228 238 240 226 199 219 229 234 241 219 220 215 221 212 199 195 180 178 178 179 177 196 208 212 215 214 219 222 223 225 230 224 225 222 225 223 220 203
264 301 283 277 276 283 235 264 265 228 245 241 226 231 226 194 200 223 226 226 232 226 219 219 209 204 203 182 179 181 182 190 201 207 214 217 217 224 227 226 228 229 231 231 231 228 224 224 222
278 292 279 260 246 247 240 191 306 198 282 309 247 238 220 190 205 216 215 227 225 221 215 206 203 237 249 198 200 198 196 187 196 205 211 219 219 224 229 232 233 234 235 233 230 234 234 234 230
325 293 319 337 349 229 352 182 260 330 356 335 319 294 230 192 194 201 210 206 219 200 193 187 189 196 233 209 195 197 198 196 200 207 217 217 222 225 229 234 238 240 238 236 235 233 235 234 234
306 340 350 298 268 273 105 244 234 10 342 326 312 285 253 178 190 198 198 203 211 197 197 195 196 208 347 204 207 205 208 216 217 226 220 226 233 238 236 235 236 239 238 241 240 242 238 238 244
332 324 295 245 256 249 210 349 187 346 328 322 280 245 192 175 184 202 200 195 210 191 183 186 188 201 229 251 210 205 199 198 206 216 228 236 239 249 245 247 240 232 235 242 237 228 240 246 259
341 345 329 337 337 318 327 69 354 344 330 327 35 159 154 158 172 188 146 178 109 101 104 134 205 271 211 233 144 110 112 120 136 177 119 93 39 317 307 260 318 348 338 280 212 51 81 81 77
2 355 314 291 255 296 339 94 7 340 330 325 31 40 87 81 61 71 74 68 69 67 68 67 76 84 79 91 80 74 70 74 72 66 57 57 52 45 50 53 51 65 69 61 88 87 80 83 73
36 358 319 268 340 322 273 73 5 345 338 360 49 72 73 73 74 66 61 63 61 62 66 64 65 72 72 72 80 74 69 68 69 68 66 63 67 65 68 72 79 77 78 91 77 81 71 70 62